WZZ2402 EPWA-LROP

Flight info

Callsign WZZ2402
Flight time 1h 26m
Altitude 37000
Route XIMBA N195 NATEV DCT KEFIR DCT KENIN DCT KARIL DCT DENAK
Aircraft A20N/M-SDE2E3FGHIRWXY/LB1

Departure

Time 2026-05-05 08:22
Airport Warsaw Chopin Airport (EPWA)

Arrival

Time 2026-05-05 09:48
Airport Bucharest Henri Coandă International Airport (LROP)
Time Latitude Longitude Altitude Speed Heading
2026-05-05 08:01 52.16999 20.97138 342 ft 0 kts 70°
2026-05-05 08:13 52.16995 20.97120 342 ft 2 kts 71°
2026-05-05 08:13 52.16990 20.97095 351 ft 2 kts 72°
2026-05-05 08:13 52.16985 20.97069 353 ft 2 kts 75°
2026-05-05 08:13 52.16982 20.97043 345 ft 2 kts 80°
2026-05-05 08:14 52.16980 20.97017 344 ft 2 kts 92°
2026-05-05 08:14 52.16985 20.96992 349 ft 2 kts 143°
2026-05-05 08:14 52.16989 20.96988 349 ft 0 kts 153°
2026-05-05 08:17 52.16981 20.96994 350 ft 4 kts 153°
2026-05-05 08:18 52.16934 20.97035 346 ft 11 kts 151°
2026-05-05 08:18 52.16849 20.97109 342 ft 17 kts 152°
2026-05-05 08:18 52.16730 20.97212 342 ft 22 kts 151°
2026-05-05 08:18 52.16636 20.97296 344 ft 25 kts 151°
2026-05-05 08:19 52.16559 20.97424 347 ft 18 kts 112°
2026-05-05 08:19 52.16505 20.97615 350 ft 20 kts 114°
2026-05-05 08:19 52.16457 20.97789 348 ft 10 kts 122°
2026-05-05 08:19 52.16381 20.97781 345 ft 15 kts 206°
2026-05-05 08:20 52.16309 20.97656 337 ft 18 kts 289°
2026-05-05 08:20 52.16331 20.97583 338 ft 0 kts 292°
2026-05-05 08:21 52.16333 20.97575 338 ft 8 kts 292°
2026-05-05 08:21 52.16459 20.97130 336 ft 78 kts 295°
2026-05-05 08:21 52.16771 20.96014 344 ft 138 kts 294°
2026-05-05 08:21 52.17219 20.94410 579 ft 160 kts 296°
2026-05-05 08:22 52.17689 20.92757 1059 ft 160 kts 295°
2026-05-05 08:22 52.18135 20.91073 1581 ft 169 kts 283°
2026-05-05 08:22 52.18124 20.89006 1877 ft 199 kts 259°
2026-05-05 08:22 52.17818 20.86665 2271 ft 220 kts 255°
2026-05-05 08:23 52.17458 20.84178 2782 ft 233 kts 255°
2026-05-05 08:23 52.17094 20.81519 3354 ft 249 kts 257°
2026-05-05 08:23 52.16716 20.78689 4057 ft 260 kts 256°
2026-05-05 08:23 52.16326 20.75802 5004 ft 261 kts 256°
2026-05-05 08:24 52.15938 20.72921 6050 ft 260 kts 255°
2026-05-05 08:24 52.15165 20.70302 7032 ft 259 kts 227°
2026-05-05 08:24 52.13814 20.68358 8030 ft 261 kts 218°
2026-05-05 08:24 52.12349 20.66579 8983 ft 264 kts 217°
2026-05-05 08:25 52.10862 20.64787 9908 ft 267 kts 217°
2026-05-05 08:25 52.09360 20.62948 10487 ft 284 kts 218°
2026-05-05 08:25 52.07727 20.60919 10827 ft 307 kts 218°
2026-05-05 08:25 52.05981 20.58733 11269 ft 325 kts 218°
2026-05-05 08:26 52.04273 20.56587 12000 ft 331 kts 218°
2026-05-05 08:26 52.02744 20.54665 12701 ft 335 kts 219°
2026-05-05 08:26 52.00890 20.52333 13605 ft 338 kts 219°
2026-05-05 08:26 51.98937 20.50167 14374 ft 344 kts 210°
2026-05-05 08:27 51.96661 20.48825 15053 ft 355 kts 193°
2026-05-05 08:27 51.94162 20.48754 15773 ft 367 kts 174°
2026-05-05 08:27 51.91715 20.50109 16487 ft 379 kts 154°
2026-05-05 08:27 51.89610 20.52754 17209 ft 389 kts 139°
2026-05-05 08:28 51.87703 20.55918 17931 ft 395 kts 136°
2026-05-05 08:28 51.85815 20.59180 18577 ft 400 kts 135°
2026-05-05 08:28 51.83903 20.62468 19201 ft 403 kts 136°
2026-05-05 08:28 51.81963 20.65776 19835 ft 407 kts 136°
2026-05-05 08:29 51.80007 20.69111 20444 ft 411 kts 134°
2026-05-05 08:29 51.78240 20.72771 21053 ft 417 kts 124°
2026-05-05 08:29 51.76958 20.77009 21659 ft 424 kts 110°
2026-05-05 08:30 51.76040 20.86497 22867 ft 434 kts 95°
2026-05-05 08:30 51.75852 20.91367 23454 ft 437 kts 94°
2026-05-05 08:30 51.75664 20.96285 23924 ft 441 kts 95°
2026-05-05 08:30 51.75465 21.01244 24381 ft 444 kts 95°
2026-05-05 08:31 51.75256 21.06237 24852 ft 447 kts 95°
2026-05-05 08:31 51.74948 21.11247 25290 ft 450 kts 101°
2026-05-05 08:31 51.74190 21.16144 25726 ft 451 kts 111°
2026-05-05 08:31 51.72920 21.20768 26167 ft 452 kts 119°
2026-05-05 08:32 51.71456 21.25261 26593 ft 454 kts 120°
2026-05-05 08:32 51.69950 21.29756 27013 ft 457 kts 120°
2026-05-05 08:32 51.68436 21.34267 27472 ft 458 kts 121°
2026-05-05 08:32 51.66791 21.38670 27868 ft 459 kts 127°
2026-05-05 08:33 51.64748 21.42616 28255 ft 459 kts 138°
2026-05-05 08:33 51.62301 21.45886 28633 ft 458 kts 148°
2026-05-05 08:33 51.59641 21.48716 29018 ft 459 kts 150°
2026-05-05 08:33 51.56909 21.51389 29416 ft 460 kts 152°
2026-05-05 08:34 51.54148 21.53983 29952 ft 459 kts 153°
2026-05-05 08:34 51.51426 21.56512 30403 ft 457 kts 153°
2026-05-05 08:34 51.48672 21.59077 30805 ft 457 kts 153°
2026-05-05 08:34 51.45929 21.61649 31216 ft 457 kts 152°
2026-05-05 08:35 51.43157 21.64265 31618 ft 456 kts 152°
2026-05-05 08:35 51.40465 21.66817 31993 ft 456 kts 152°
2026-05-05 08:35 51.37738 21.69409 32382 ft 456 kts 152°
2026-05-05 08:35 51.35015 21.72002 32754 ft 455 kts 152°
2026-05-05 08:36 51.32295 21.74590 33145 ft 454 kts 152°
2026-05-05 08:36 51.29580 21.77171 33512 ft 454 kts 152°
2026-05-05 08:36 51.26870 21.79744 33861 ft 453 kts 152°
2026-05-05 08:36 51.24155 21.82316 34168 ft 453 kts 152°
2026-05-05 08:37 51.21449 21.84875 34480 ft 452 kts 152°
2026-05-05 08:37 51.18743 21.87429 34775 ft 452 kts 152°
2026-05-05 08:37 51.16037 21.89975 35031 ft 452 kts 152°
2026-05-05 08:37 51.13327 21.92518 35240 ft 453 kts 152°
2026-05-05 08:38 51.10610 21.95060 35510 ft 452 kts 152°
2026-05-05 08:38 51.07897 21.97594 35790 ft 452 kts 152°
2026-05-05 08:38 51.05188 22.00122 36068 ft 451 kts 152°
2026-05-05 08:38 51.02483 22.02641 36324 ft 451 kts 152°
2026-05-05 08:39 50.99782 22.05155 36573 ft 450 kts 152°
2026-05-05 08:39 50.97081 22.07664 36832 ft 450 kts 152°
2026-05-05 08:39 50.94373 22.10176 36930 ft 451 kts 152°
2026-05-05 08:40 50.88793 22.14607 36934 ft 446 kts 164°
2026-05-05 08:40 50.82757 22.16237 36936 ft 440 kts 183°
2026-05-05 08:41 50.76649 22.15590 36940 ft 440 kts 188°
2026-05-05 08:41 50.70570 22.14500 36946 ft 440 kts 188°
2026-05-05 08:42 50.64487 22.13389 36936 ft 440 kts 188°
2026-05-05 08:42 50.58396 22.12337 36943 ft 440 kts 188°
2026-05-05 08:43 50.52303 22.11321 36951 ft 441 kts 188°
2026-05-05 08:43 50.46206 22.10315 36948 ft 440 kts 188°
2026-05-05 08:44 50.40114 22.09310 36953 ft 440 kts 188°
2026-05-05 08:44 50.34014 22.08305 36962 ft 441 kts 188°
2026-05-05 08:45 50.27918 22.07301 36966 ft 441 kts 188°
2026-05-05 08:45 50.21817 22.06301 36970 ft 441 kts 188°
2026-05-05 08:46 50.15719 22.05303 36959 ft 441 kts 188°
2026-05-05 08:46 50.09616 22.04307 36967 ft 442 kts 187°
2026-05-05 08:47 50.03492 22.03310 36967 ft 442 kts 188°
2026-05-05 08:47 49.97368 22.02315 36967 ft 443 kts 188°
2026-05-05 08:48 49.91284 22.01328 36971 ft 442 kts 187°
2026-05-05 08:48 49.85154 22.00336 36979 ft 443 kts 188°
2026-05-05 08:49 49.79021 21.99350 36976 ft 443 kts 188°
2026-05-05 08:49 49.72895 21.98364 36984 ft 443 kts 188°
2026-05-05 08:50 49.66763 21.97383 36985 ft 443 kts 188°
2026-05-05 08:50 49.60613 21.96400 36988 ft 445 kts 189°
2026-05-05 08:51 49.54459 21.95419 36996 ft 444 kts 188°
2026-05-05 08:51 49.48307 21.94440 37000 ft 445 kts 188°
2026-05-05 08:52 49.42148 21.93461 36998 ft 445 kts 188°
2026-05-05 08:52 49.35984 21.92534 36998 ft 446 kts 185°
2026-05-05 08:53 49.29753 21.92355 37005 ft 449 kts 182°
2026-05-05 08:53 49.23504 21.92365 37003 ft 449 kts 182°
2026-05-05 08:54 49.17257 21.92412 37007 ft 448 kts 181°
2026-05-05 08:54 49.11023 21.92448 37010 ft 448 kts 181°
2026-05-05 08:55 49.04816 21.92473 37013 ft 450 kts 181°
2026-05-05 08:55 48.98558 21.92496 37016 ft 449 kts 181°
2026-05-05 08:56 48.92318 21.92519 37016 ft 448 kts 182°
2026-05-05 08:56 48.86080 21.92544 37017 ft 448 kts 182°
2026-05-05 08:57 48.79829 21.92566 37018 ft 449 kts 181°
2026-05-05 08:57 48.73581 21.92586 37015 ft 448 kts 181°
2026-05-05 08:58 48.67347 21.92608 37021 ft 447 kts 181°
2026-05-05 08:58 48.61123 21.92631 37020 ft 447 kts 181°
2026-05-05 08:59 48.54894 21.92654 37020 ft 447 kts 181°
2026-05-05 08:59 48.48670 21.92676 37021 ft 447 kts 181°
2026-05-05 09:00 48.42441 21.92698 37018 ft 448 kts 181°
2026-05-05 09:00 48.36256 21.93832 37021 ft 450 kts 165°
2026-05-05 09:00 48.33333 21.95525 37020 ft 452 kts 154°
2026-05-05 09:01 48.30558 21.97744 37022 ft 452 kts 151°
2026-05-05 09:01 48.25157 22.02606 37019 ft 453 kts 148°
2026-05-05 09:02 48.19801 22.07617 37023 ft 454 kts 148°
2026-05-05 09:02 48.14431 22.12581 37022 ft 454 kts 149°
2026-05-05 09:03 48.09041 22.17496 37028 ft 454 kts 149°
2026-05-05 09:03 48.03644 22.22386 37029 ft 454 kts 149°
2026-05-05 09:04 47.98239 22.27268 37028 ft 454 kts 149°
2026-05-05 09:04 47.92824 22.32151 37026 ft 455 kts 149°
2026-05-05 09:05 47.87437 22.36998 37029 ft 455 kts 149°
2026-05-05 09:05 47.82011 22.41867 37028 ft 455 kts 149°
2026-05-05 09:05 47.79427 22.44573 37029 ft 455 kts 137°
2026-05-05 09:06 47.77114 22.47778 37034 ft 454 kts 135°
2026-05-05 09:06 47.72658 22.54442 37039 ft 455 kts 133°
2026-05-05 09:07 47.68991 22.60135 37043 ft 455 kts 133°
2026-05-05 09:07 47.64611 22.66928 37044 ft 456 kts 133°
2026-05-05 09:08 47.60208 22.73694 37043 ft 456 kts 133°
2026-05-05 09:08 47.55794 22.80432 37044 ft 455 kts 133°
2026-05-05 09:09 47.51377 22.87152 37043 ft 455 kts 133°
2026-05-05 09:09 47.46989 22.93812 37040 ft 455 kts 133°
2026-05-05 09:10 47.42569 23.00504 37036 ft 455 kts 134°
2026-05-05 09:10 47.38146 23.07185 37039 ft 455 kts 133°
2026-05-05 09:11 47.33713 23.13863 37038 ft 455 kts 133°
2026-05-05 09:11 47.29277 23.20527 37040 ft 456 kts 133°
2026-05-05 09:12 47.24835 23.27186 37042 ft 456 kts 134°
2026-05-05 09:12 47.20388 23.33835 37051 ft 456 kts 133°
2026-05-05 09:13 47.15940 23.40467 37041 ft 455 kts 133°
2026-05-05 09:13 47.11491 23.47086 37042 ft 455 kts 133°
2026-05-05 09:14 47.07040 23.53692 37049 ft 455 kts 133°
2026-05-05 09:14 47.02583 23.60289 37059 ft 455 kts 134°
2026-05-05 09:15 46.98124 23.66872 37062 ft 455 kts 133°
2026-05-05 09:15 46.93690 23.73401 37069 ft 455 kts 133°
2026-05-05 09:16 46.89222 23.79964 37073 ft 455 kts 133°
2026-05-05 09:16 46.84748 23.86519 37073 ft 455 kts 134°
2026-05-05 09:17 46.80277 23.93055 37068 ft 455 kts 133°
2026-05-05 09:17 46.75796 23.99588 37065 ft 455 kts 133°
2026-05-05 09:18 46.71312 24.06110 37068 ft 455 kts 133°
2026-05-05 09:18 46.66819 24.12629 37074 ft 456 kts 134°
2026-05-05 09:19 46.62319 24.19140 37080 ft 456 kts 133°
2026-05-05 09:19 46.57816 24.25641 37072 ft 456 kts 133°
2026-05-05 09:20 46.53311 24.32128 37059 ft 456 kts 133°
2026-05-05 09:20 46.48804 24.38602 37075 ft 456 kts 133°
2026-05-05 09:21 46.44289 24.45073 37076 ft 456 kts 134°
2026-05-05 09:21 46.39770 24.51532 37054 ft 456 kts 134°
2026-05-05 09:22 46.35250 24.57977 37055 ft 457 kts 134°
2026-05-05 09:22 46.30747 24.64382 37057 ft 457 kts 134°
2026-05-05 09:23 46.26208 24.70821 37071 ft 457 kts 134°
2026-05-05 09:23 46.21660 24.77259 37057 ft 458 kts 134°
2026-05-05 09:24 46.17104 24.83692 37064 ft 458 kts 134°
2026-05-05 09:24 46.12547 24.90111 37058 ft 458 kts 134°
2026-05-05 09:25 46.07984 24.96522 37064 ft 458 kts 134°
2026-05-05 09:25 46.03418 25.02922 37052 ft 458 kts 134°
2026-05-05 09:26 45.98847 25.09314 37065 ft 458 kts 134°
2026-05-05 09:26 45.94277 25.15689 37056 ft 458 kts 134°
2026-05-05 09:27 45.89700 25.22057 37064 ft 458 kts 134°
2026-05-05 09:27 45.85126 25.28406 37067 ft 457 kts 134°
2026-05-05 09:28 45.80564 25.34723 36539 ft 454 kts 134°
2026-05-05 09:28 45.78295 25.37859 35960 ft 453 kts 134°
2026-05-05 09:28 45.76026 25.40993 35369 ft 454 kts 134°
2026-05-05 09:28 45.73754 25.44127 34781 ft 454 kts 134°
2026-05-05 09:29 45.71474 25.47267 34128 ft 456 kts 133°
2026-05-05 09:29 45.69182 25.50421 33412 ft 457 kts 133°
2026-05-05 09:29 45.66893 25.53566 32760 ft 457 kts 133°
2026-05-05 09:29 45.64602 25.56710 32083 ft 457 kts 133°
2026-05-05 09:30 45.62308 25.59856 31410 ft 457 kts 133°
2026-05-05 09:30 45.60007 25.63005 30724 ft 458 kts 133°
2026-05-05 09:30 45.57709 25.66148 30016 ft 459 kts 133°
2026-05-05 09:30 45.55430 25.69262 29209 ft 459 kts 133°
2026-05-05 09:31 45.53119 25.72415 28367 ft 460 kts 134°
2026-05-05 09:31 45.50803 25.75570 27632 ft 460 kts 133°
2026-05-05 09:31 45.48464 25.78753 26983 ft 457 kts 133°
2026-05-05 09:31 45.46173 25.81865 26407 ft 453 kts 133°
2026-05-05 09:32 45.43903 25.84947 25848 ft 449 kts 133°
2026-05-05 09:32 45.41652 25.87999 25300 ft 445 kts 133°
2026-05-05 09:32 45.39419 25.91023 24709 ft 442 kts 134°
2026-05-05 09:32 45.37202 25.94024 24150 ft 438 kts 134°
2026-05-05 09:33 45.34999 25.97002 23570 ft 435 kts 133°
2026-05-05 09:33 45.32843 25.99912 22958 ft 431 kts 133°
2026-05-05 09:33 45.30677 26.02831 22338 ft 426 kts 133°
2026-05-05 09:33 45.28536 26.05715 21729 ft 422 kts 133°
2026-05-05 09:34 45.26417 26.08566 21095 ft 419 kts 133°
2026-05-05 09:34 45.24312 26.11394 20512 ft 415 kts 133°
2026-05-05 09:34 45.22229 26.14193 19935 ft 411 kts 133°
2026-05-05 09:34 45.20162 26.16965 19352 ft 407 kts 133°
2026-05-05 09:35 45.18111 26.19713 18782 ft 404 kts 133°
2026-05-05 09:35 45.14051 26.25145 17556 ft 398 kts 133°
2026-05-05 09:35 45.12046 26.27823 16926 ft 395 kts 133°
2026-05-05 09:36 45.10057 26.30477 16322 ft 391 kts 132°
2026-05-05 09:36 45.08086 26.33107 15702 ft 388 kts 133°
2026-05-05 09:36 45.06126 26.35719 15108 ft 386 kts 133°
2026-05-05 09:36 45.04179 26.38308 14556 ft 382 kts 133°
2026-05-05 09:37 45.02248 26.40875 13974 ft 380 kts 133°
2026-05-05 09:37 45.00268 26.43342 13324 ft 381 kts 141°
2026-05-05 09:37 44.97942 26.45153 12731 ft 381 kts 150°
2026-05-05 09:37 44.95561 26.46752 12227 ft 376 kts 152°
2026-05-05 09:38 44.93228 26.48274 12004 ft 362 kts 151°
2026-05-05 09:38 44.90980 26.49742 11820 ft 349 kts 151°
2026-05-05 09:38 44.88820 26.51161 11663 ft 336 kts 150°
2026-05-05 09:38 44.86741 26.52530 11510 ft 324 kts 150°
2026-05-05 09:39 44.84733 26.53856 11326 ft 314 kts 150°
2026-05-05 09:39 44.82771 26.55154 11014 ft 310 kts 150°
2026-05-05 09:39 44.80827 26.56443 10652 ft 307 kts 150°
2026-05-05 09:39 44.78901 26.57719 10298 ft 305 kts 150°
2026-05-05 09:40 44.76984 26.58989 9931 ft 304 kts 149°
2026-05-05 09:40 44.75076 26.60250 9518 ft 302 kts 150°
2026-05-05 09:40 44.73192 26.61494 9254 ft 295 kts 150°
2026-05-05 09:40 44.71394 26.62676 9127 ft 284 kts 150°
2026-05-05 09:41 44.69549 26.63556 8993 ft 279 kts 165°
2026-05-05 09:41 44.67648 26.63933 8787 ft 274 kts 170°
2026-05-05 09:41 44.65753 26.64195 8468 ft 273 kts 171°
2026-05-05 09:41 44.63866 26.64406 8169 ft 272 kts 177°
2026-05-05 09:42 44.62023 26.63878 7823 ft 273 kts 209°
2026-05-05 09:42 44.60689 26.62072 7467 ft 266 kts 246°
2026-05-05 09:42 44.60204 26.59635 7167 ft 257 kts 267°
2026-05-05 09:42 44.60020 26.57155 6892 ft 254 kts 270°
2026-05-05 09:43 44.59876 26.54694 6593 ft 253 kts 269°
2026-05-05 09:43 44.59726 26.52240 6289 ft 252 kts 269°
2026-05-05 09:43 44.59565 26.49796 6002 ft 251 kts 269°
2026-05-05 09:43 44.59400 26.47370 5725 ft 249 kts 268°
2026-05-05 09:44 44.59230 26.44965 5467 ft 247 kts 268°
2026-05-05 09:44 44.59060 26.42565 5216 ft 246 kts 268°
2026-05-05 09:44 44.58886 26.40187 4952 ft 245 kts 268°
2026-05-05 09:44 44.58716 26.37832 4755 ft 240 kts 267°
2026-05-05 09:45 44.58547 26.35540 4638 ft 232 kts 267°
2026-05-05 09:45 44.58385 26.33329 4523 ft 223 kts 267°
2026-05-05 09:45 44.58223 26.31184 4244 ft 224 kts 266°
2026-05-05 09:45 44.58053 26.28957 3704 ft 235 kts 265°
2026-05-05 09:46 44.57871 26.26633 3156 ft 241 kts 264°
2026-05-05 09:46 44.57699 26.24319 2657 ft 234 kts 264°
2026-05-05 09:46 44.57558 26.22096 2099 ft 226 kts 263°
2026-05-05 09:46 44.57378 26.19927 1462 ft 222 kts 263°
2026-05-05 09:47 44.57276 26.17883 1396 ft 197 kts 265°
2026-05-05 09:47 44.57143 26.16027 979 ft 192 kts 261°
2026-05-05 09:47 44.56949 26.14271 692 ft 175 kts 264°
2026-05-05 09:47 44.56844 26.12658 471 ft 159 kts 263°
2026-05-05 09:48 44.56732 26.11175 322 ft 146 kts 264°
2026-05-05 09:48 44.56646 26.10057 322 ft 74 kts 264°
2026-05-05 09:48 44.56622 26.09731 323 ft 8 kts 263°
2026-05-05 09:48 44.56613 26.09620 323 ft 15 kts 263°
2026-05-05 09:49 44.56599 26.09434 322 ft 23 kts 264°
2026-05-05 09:49 44.56580 26.09175 321 ft 29 kts 264°
2026-05-05 09:49 44.56559 26.08906 321 ft 22 kts 265°
2026-05-05 09:49 44.56581 26.08675 323 ft 27 kts 304°
2026-05-05 09:50 44.56754 26.08573 321 ft 25 kts 354°
2026-05-05 09:50 44.56876 26.08550 321 ft 12 kts 330°
2026-05-05 09:50 44.56913 26.08419 322 ft 17 kts 313°
2026-05-05 09:50 44.56948 26.08244 320 ft 20 kts 264°
2026-05-05 09:51 44.56980 26.08201 323 ft 8 kts 355°
2026-05-05 09:51 44.57033 26.08196 323 ft 0 kts 352°